Погода в Мироновке

Погода в Мироновке : погода сейчас, прогноз погоды и архив. Всё, что Вы хотите узнать о погоде в Мироновке!

Хотите узнать прогноз погоды в Мироновке? Тогда Вам сюда: Погода в Мироновке

Поиск расширенной информации на нашем сайте:

Другие новости

Новости СМИ2

Главная страница сайта

Новости сайта

03.07.2017

Напоминаем, что на нашем специализированном сайте Метеоцентр.Азия вы можете получить высокодетализированные автоматические прогнозы погоды по пунктам России, СНГ и мира в авиационном формате (включающие направление и скорость ветра, видимость, явления погоды, количество и форму облачности, нижнюю и верхнюю границу облачности).

Рекомендуем: Интересует вакуумные банки от целлюлита отзывы? См. здесь!

Погода в Мироновке - сегодня

Время (UTC), дата Ветер
(°,м/с) 
Видим.   Явления Облачность Т
(°С)
Тd
(°С)
f(%) Тe
(°С)
Pmin
(гПа)
dP
(гПа)
Po
(мм)
O2
(г/м3)
Тmin Tmax R s Состояние
почвы
21 19.07.17 тихо ()   26000 м    ясно 
+17.8 +12.6 72 +23  1017.4  -0.2  750  281           
00 20.07.17 тихо ()   15000 м    ясно 
+15.4 +11.9 80 +19  1016.9  -0.6  749  283           
03 20.07.17 150 (ЮВ) 12000 м    6/4 600 м кучево-дожд., верхняя 
[Cb calv|Ci fib]
+14.5 +11.7 83 +20  1016.9  -0.1  749  284           
06 20.07.17 200 (Ю) 20000 м    9/9 570 м кучево-дожд. 
[Cb calv]
+22.6 +13.3 56 +29  1016.4  749  276  +14         
09 20.07.17 150 (ЮВ) 20000 м    3/3 1000 м 
[Sc]
+26.3 +11.7 40 +30  1014.9  -1.2  748  273           
12 20.07.17 210 (ЮЗ) 20000 м    8/5 600 м кучево-дожд., верхняя 
[Cb calv|Ci fib]
+28.6 +11.3 34 +32  1013.1  -1.7  747  270           
15 20.07.17 190 (Ю) 20000 м    6/4 600 м кучево-дожд., средняя 
[Cb calv|Ac trans]
+29.3 +13 37 +35  1011.7  -1.3  746  269           
18 20.07.17 010 (С) 20000 м    10/10 540 м кучево-дожд. 
[Cb calv]
+23.2 +15.6 62 +33  1013.3  1.2  747  274    +30.1       
21 20.07.17 140 (ЮВ) 25000 м  {ливн. осадки}  3/0 верхняя 
[Ci sp]
+21.8 +15.8 69 +32  1013.1  -0.2  747  275           
00 21.07.17 тихо ()   13000 м  {ливн. осадки}  3/0 верхняя 
[Ci fib]
+19.6 +15.2 76 +29  1013.1  -0.2  746  277      0.0     
03 21.07.17 210 (ЮЗ) 14000 м    1/0 средняя 
[Ac trans]
+17.8 +13.8 77 +25  1013.2  746  280           
06 21.07.17 280 (З) 20000 м    1/0 средняя 
[Ac trans]
+24.7 +14.3 52 +32  1013.7  0.9  747  273  +17.8    0.0     
09 21.07.17 270 (З) 20000 м    3/3 1000 м средняя 
[Cu hum|Ac trans]
+30.4 +12.8 34 +36  1013.4  747  268           
12 21.07.17 220 (ЮЗ) 20000 м    8/4 600 м кучево-дожд., средняя 
[Cb calv|Ac trans]
+31.6 +12.4 31 +36  1012.9  -0.4  747  267           
15 21.07.17 210 (ЮЗ) 20000 м    8/5 1000 м средняя 
[Cu Sc|Ac trans]
+31 +13 33 +37  1012.3  -0.6  746  268           
18 21.07.17 230 (ЮЗ) 20000 м    3/0 средняя 
[Ac trans]
+28.1 +12.4 38 +33  1012.4  -0.1  746  270    +2.6       
21 21.07.17 200 (Ю) 45000 м    3/0 средняя 
[Ac trans]
+25.5 +12.4 44 +30  1012.5  746  273           
00 22.07.17 220 (ЮЗ) 40000 м    ясно 
+23.4 +11.3 47 +26  1012.3  -0.4  746  275           
03 22.07.17 210 (ЮЗ) 20000 м    3/0 верхняя 
[Ci fib]
+21.1 +12.1 56 +25  1012.5  0.1  746  277           
06 22.07.17 240 (ЮЗ) 20000 м    ясно 
+27.6 +11.2 36 +30  1012.4  0.3  746  271  +20.9  +3.5       
09 22.07.17 230 (ЮЗ) 20000 м    1/0 верхняя 
[Ci fib]
+31.3 +10.2 27 +33  1011.6  -0.6  746  268           
12 22.07.17 270 (З) 20000 м    8/3 600 м кучево-дожд., средняя, верхняя 
[Cb calv|Ac trans|Cc]
+30.8 +13.6 35 +37  1011.2  -0.4  746  267           
15 22.07.17 180 (Ю) 20000 м  в посл. час гроза{ливн. осадки}  9/8 800 м кучево-дожд., средняя, верхняя 
[Cb calv|Ac trans|Cs]
+24.6 +13.8 51 +31  1012.2  0.6  746  273           
18 22.07.17 330 (СЗ) 20000 м  {гроза, ливн. осадки}  8/1 1000 м средняя, верхняя 
[Sc|Ac trans|Cs]
+24.9 +17.4 63 +38  1013.2  747  272    +32.7  0.0     
21 22.07.17 010 (С) 15000 м    ясно 
+20.9 +17.2 79 +34  1014.3  0.9  747  276           
Время (UTC), дата Ветер
(°,м/с) 
Видим.   Явления Облачность Т
(°С)
Тd
(°С)
f(%) Тe
(°С)
Pmin
(гПа)
dP
(гПа)
Po
(мм)
O2
(г/м3)
Тmin Tmax R s Состояние
почвы

Для получения пояснительной информации подведите курсор к названию столбца.

ПОГОДА в Мироновке - архив

Всё, что Вы хотите узнать о погоде в Мироновке - удобно и подробно!

Выберите нужную дату (начиная с 1 января 2015* года) и нажмите кнопку "Найти".
Будут отображены архивные сводки погоды по пункту Мироновка, начиная с указанной даты.


Отображать данные в формате CSV (для использования в таблицах Excel)


Внимание! Наш архив погоды предназначен исключительно для личного некоммерческого использования в познавательных целях. Если Вам необходимы официальные справки о состоянии погоды (для производственных, юридических, коммерческих и т.п. целей), обращайтесь в органы Росгидромета.

*Примечание: данная дата относится к архиву по метеостанциям СССР (Россия, СНГ, Балтия).
Архив по метеостанциям Зарубежной Европы и Азии (кроме Китая) хранится 10 дней, по другим регионам земного шара (Китай, Африка, Америка, Австралия, Океания) - 1 день.

Мироновка - район местоположения метеостанции


Название, широта, долгота, высота метеостанции:
Мироновка 49.7°ш. 31°д. 153 м над ур. моря [Украина]

Дополнительная информация

В oтличие oт бoльшинства пoгoдных сайтoв мы публикуем пoдрoбную метеoинфoрмацию в детальнoм прoфессиoнальнoм фoрмате.

Характеристики температуры и влажнoсти вoздуха измеряются на высoте 2 м в тени вдали oт зданий и деревьев.
Скoрoсть ветра измеряется на высoте 10 м (на урoвне рoста челoвека скoрoсть ветра ниже в 1.5-2 раза). Если метеoстанция нахoдится в гoрoде или в лесу, тo скoрoсть ветра занижена на 2-4 м/с пo сравнению с oткрытым местoм. Скoрoсть ветра над акватoриями крупных рек и oзёр, а также на вершинах хoлмoв на 2-5 м/с выше, чем в oбычных услoвиях.
Атмoсфернoе давление в разных тoчках местнoсти мoжет значительнo oтличаться oт давления на метеoстанции, в зависимoсти oт услoвий рельефа (при пoдъёме на 10 м давление пoнижается примернo на 1 мм рт.ст.).